Burlington, NC

5:35 PM EDT on August 29, 2016 (GMT -0400)
Burlington-Alamance Regional

Weather History for KBUY - October, 2012

Change the Weather History Date:

Sunday, October 7, 2012

  Actual Average Record
Temperature  
Mean Temperature 52 °F -  
Max Temperature 57 °F 75 °F 91 °F (1954)
Min Temperature 48 °F 49 °F 34 °F (1988)
Degree Days  
Heating Degree Days 12    
Growing Degree Days 2 (Base 50)    
Moisture  
Dew Point 49 °F    
Average Humidity 90    
Maximum Humidity 94    
Minimum Humidity 80    
Precipitation  
Precipitation 0.60 in - - ()
Sea Level Pressure  
Sea Level Pressure 30.06 in    
Wind  
Wind Speed 7 mph (NNE)    
Max Wind Speed 17 mph    
Max Gust Speed 29 mph    
Visibility 8 miles    
Events Rain , Thunderstorm    
Averages and records for this station are not official NWS values.
T = Trace of Precipitation, MM = Missing Value Source: NWS Daily Summary

Daily Weather History Graph

Daily Weather History Graph

Search for Another Location

Airport or City:

Trip Planner

Search our weather history database for the weather conditions in past years. The results will help you decide how hot, cold, wet, or windy it might be!

Date:

Astronomy

Oct. 07, 2012 Rise Set
Actual Time 7:18 AM EDT 6:52 PM EDT
Civil Twilight 6:52 AM EDT 7:17 PM EDT
Nautical Twilight 6:22 AM EDT 7:47 PM EDT
Astronomical Twilight 5:53 AM EDT 8:17 PM EDT
Moon No Moon Rise 1:46 PM EDT (10/7)
Length of Visible Light 12h 25m
Length of Day
11h 33m
Waning Gibbous, 56% of the Moon is Illuminated
Oct 7
Waning Gibbous
Oct 8
Last Quarter
Oct 15
New
Oct 21
First Quarter
Oct 29
Full

Hourly Weather History & Observations

Time (EDT) Temp. Dew Point Humidity Pressure Visibility Wind Dir Wind Speed Gust Speed Precip Events Conditions
12:54 AM 57.0 °F 53.1 °F 87% 29.99 in 8.0 mi North 5.8 mph - 0.03 in Rain Rain
1:54 AM 55.0 °F 52.0 °F 89% 30.01 in 5.0 mi Variable 3.5 mph - 0.11 in Rain Rain
2:54 AM 55.0 °F 53.1 °F 93% 30.00 in 10.0 mi ENE 4.6 mph - 0.06 in   Overcast
3:42 AM 55.4 °F 53.6 °F 94% 30.01 in 10.0 mi North 4.6 mph - 0.03 in   Overcast
3:54 AM 55.0 °F 53.1 °F 93% 29.99 in 10.0 mi NNE 6.9 mph - 0.03 in   Overcast
4:03 AM 55.4 °F 53.6 °F 94% 30.00 in 10.0 mi NE 8.1 mph - N/A   Overcast
4:12 AM 55.4 °F 53.6 °F 94% 30.01 in 10.0 mi NNE 6.9 mph - N/A   Overcast
4:23 AM 55.4 °F 53.6 °F 94% 30.01 in 10.0 mi NE 4.6 mph - N/A   Overcast
4:54 AM 55.0 °F 53.1 °F 93% 29.99 in 10.0 mi NNE 9.2 mph - N/A   Overcast
5:24 AM 53.6 °F 51.8 °F 94% 30.01 in 10.0 mi NNE 12.7 mph 17.3 mph N/A   Overcast
5:35 AM 53.6 °F 48.2 °F 82% 30.00 in 10.0 mi NE 11.5 mph 20.7 mph N/A   Overcast
5:54 AM 52.0 °F 48.0 °F 86% 30.00 in 10.0 mi NE 9.2 mph - N/A   Overcast
6:54 AM 51.1 °F 45.0 °F 80% 30.00 in 10.0 mi NNE 6.9 mph - N/A   Overcast
7:04 AM 51.8 °F 46.4 °F 82% 30.02 in 10.0 mi NNE 8.1 mph - N/A   Overcast
7:54 AM 51.1 °F 48.0 °F 89% 30.06 in 7.0 mi NW 9.2 mph - 0.02 in Rain Light Rain
8:05 AM 51.8 °F 48.2 °F 88% 30.11 in 10.0 mi NW 12.7 mph 19.6 mph 0.00 in Rain Light Rain
8:16 AM 50.0 °F 48.2 °F 94% 30.13 in 2.5 mi NW 13.8 mph 28.8 mph 0.11 in Rain , Thunderstorm Heavy Rain
8:20 AM 50.0 °F 48.2 °F 94% 30.14 in 2.5 mi NW 15.0 mph 24.2 mph 0.12 in Rain , Thunderstorm Rain
8:27 AM 50.0 °F 46.4 °F 87% 30.08 in 4.0 mi North 17.3 mph 24.2 mph 0.15 in Rain , Thunderstorm Rain
8:37 AM 48.2 °F 46.4 °F 93% 30.07 in 4.0 mi NNE 12.7 mph 27.6 mph 0.20 in Rain , Thunderstorm Heavy Rain
8:48 AM 48.2 °F 46.4 °F 93% 30.07 in 1.8 mi ESE 10.4 mph - 0.28 in Rain , Thunderstorm Heavy Thunderstorms and Rain
8:54 AM 48.9 °F 46.9 °F 93% 30.04 in 1.8 mi ENE 10.4 mph - 0.31 in Rain , Thunderstorm Thunderstorms and Rain
9:00 AM 48.2 °F 46.4 °F 93% 30.03 in 3.0 mi East 12.7 mph 21.9 mph 0.02 in Rain , Thunderstorm Rain
9:54 AM 50.0 °F 48.0 °F 93% 30.06 in 10.0 mi NE 4.6 mph - 0.04 in   Overcast
10:12 AM 51.8 °F 48.2 °F 88% 30.08 in 10.0 mi North 6.9 mph - N/A   Overcast
10:54 AM 51.1 °F 48.9 °F 92% 30.08 in 10.0 mi North 8.1 mph - N/A   Overcast
11:54 AM 52.0 °F 48.9 °F 89% 30.07 in 10.0 mi NNE 9.2 mph - N/A   Overcast
12:11 PM 51.8 °F 48.2 °F 88% 30.08 in 10.0 mi North 5.8 mph - N/A   Overcast
12:54 PM 52.0 °F 48.0 °F 86% 30.06 in 10.0 mi NNE 6.9 mph - N/A   Overcast
1:54 PM 52.0 °F 48.0 °F 86% 30.04 in 10.0 mi North 6.9 mph - N/A   Overcast
2:54 PM 53.1 °F 48.9 °F 86% 30.02 in 10.0 mi East 6.9 mph - N/A   Overcast
3:01 PM 53.6 °F 48.2 °F 82% 30.02 in 10.0 mi ENE 6.9 mph - N/A   Overcast
3:54 PM 53.1 °F 48.9 °F 86% 30.04 in 10.0 mi NW 5.8 mph - N/A   Overcast
4:54 PM 52.0 °F 50.0 °F 93% 30.07 in 3.0 mi NW 4.6 mph - N/A   Overcast
5:54 PM 52.0 °F 48.9 °F 89% 30.09 in 5.0 mi NW 5.8 mph - N/A   Overcast
6:24 PM 51.8 °F 48.2 °F 88% 30.11 in 2.5 mi NNW 6.9 mph - N/A   Overcast
6:35 PM 51.8 °F 48.2 °F 88% 30.11 in 6.0 mi North 6.9 mph - 0.00 in   Overcast
6:50 PM 51.8 °F 48.2 °F 88% 30.11 in 10.0 mi North 3.5 mph - 0.00 in   Overcast
6:54 PM 52.0 °F 48.9 °F 89% 30.11 in 10.0 mi North 3.5 mph - 0.00 in   Overcast
7:54 PM 51.1 °F 48.9 °F 92% 30.12 in 10.0 mi NNE 3.5 mph - N/A   Mostly Cloudy
8:54 PM 52.0 °F 48.0 °F 86% 30.14 in 10.0 mi North 3.5 mph - N/A   Overcast
9:54 PM 51.1 °F 48.0 °F 89% 30.14 in 10.0 mi North 5.8 mph - N/A   Overcast
10:54 PM 50.0 °F 48.0 °F 93% 30.14 in 10.0 mi North 5.8 mph - N/A   Partly Cloudy
11:54 PM 50.0 °F 48.0 °F 93% 30.15 in 10.0 mi North 5.8 mph - N/A   Mostly Cloudy